sat.trackr.live / text

‹ back to catalog

STARS (KUKAI)

NORAD 33498 · 2009-002G

PAYLOAD ACTIVE UNKNOWN

§ Identity

Operator
Country
JPN
Launch date
2009-01-23
Launch site
TANSC
Launch vehicle
Mass (kg)
RCS (m²)
0.12

External: N2YO · Heavens-Above · Gunter

§ Orbital elements

Epoch: 2026-09-20T03:03:37.105056Z

Period
96.24 min
Inclination
98.1626°
Eccentricity
0.0007531
Mean motion
14.96307268 rev/d
Perigee alt
573.1 km
Apogee alt
583.6 km
Semi-major
6,956.5 km
B*
2.0095e-4
RAAN
214.3881°
Arg perigee
209.2985°
Mean anomaly
150.7813°
Rev number
95,267

§ Raw data

STARS (KUKAI)1 33498U 09002G   26263.12751279  .00002209  00000+0  20095-3 0  99922 33498  98.1626 214.3881 0007531 209.2985 150.7813 14.96307268952679

JSON: /api/v1/satellites/33498 · /tle

For live sub-satellite position, see the globe view (requires WebGL).

§ Visibility from observer

Set your observer location to see the next 7 days of passes ≥ 10°. The values pass through the URL so the page stays shareable.

No JS? Fill the form by hand. The geolocation button needs JavaScript.

§ Radio — SatNOGS DB

ModeDescriptionDownlinkUplink
CW CW (JR5YBO) 437.275 MHz

1 transmitter · refreshed weekly from db.satnogs.org